FW3145 Weather Reports


Display with metric or nautical units.
time (UTC)temp
F
wind
direction
speed
MPH
gust
MPH
rain 1hr
in
rain 24hr
in
rain mn
in
humidity
%
barometer
mb
20260507020014 57 348 0.0 0.0 0.00 0.01 0.01 82 1012.0
20260507014514 57 347 0.0 0.0 0.00 0.01 0.01 82 1012.2
20260507013014 57 348 0.0 0.0 0.01 0.01 0.01 82 1012.0
20260507011512 57 342 0.0 0.0 0.01 0.01 0.01 82 1011.7
20260507010012 58 342 0.0 0.0 0.01 0.01 0.01 81 1011.6
20260507004509 58 115 0.0 0.0 0.01 0.01 0.01 81 1011.6
20260507003009 58 109 0.0 0.0 0.00 0.00 0.00 80 1011.4
20260507001508 58 108 0.0 0.0 0.00 0.00 0.00 80 1011.6
20260507000004 58 22 0.0 0.0 0.00 0.00 0.00 80 1011.8
20260506234501 58 32 0.0 0.0 0.00 0.00 0.00 80 1012.2
20260506233100 58 12 0.0 0.0 0.00 0.00 0.00 81 1012.3
20260506231610 58 13 0.0 0.0 0.00 0.00 0.00 80 1012.7
20260506230110 59 15 0.0 0.0 0.00 0.00 0.00 81 1012.8
20260506224554 59 16 0.0 0.0 0.00 0.00 0.00 80 1013.0
20260506223052 59 16 0.0 0.0 0.00 0.00 0.00 80 1012.9
20260506221610 60 16 0.0 0.0 0.00 0.00 0.00 79 1013.0
20260506220104 60 16 0.0 0.0 0.00 0.00 0.00 79 1012.8
20260506214550 60 16 0.0 0.0 0.00 0.00 0.00 77 1012.9
20260506213104 60 16 0.0 0.0 0.00 0.00 0.00 75 1012.9
20260506211548 61 343 0.0 0.0 0.00 0.00 0.00 75 1013.0
20260506210054 62 343 0.0 0.0 0.00 0.00 0.00 73 1013.0
20260506204546 62 343 0.0 0.0 0.00 0.00 0.00 70 1013.1
20260506203047 62 5 0.0 0.0 0.00 0.00 0.00 69 1013.4
20260506201549 63 315 0.0 0.0 0.00 0.00 0.00 67 1013.7
20260506200045 63 299 0.0 0.0 0.00 0.00 0.00 65 1014.0
20260506194545 64 286 0.0 0.0 0.00 0.00 0.00 65 1013.7
20260506193044 64 267 0.0 0.0 0.00 0.00 0.00 64 1013.3
20260506191549 64 284 0.0 0.0 0.00 0.00 0.00 65 1012.9
20260506190044 64 311 0.0 0.0 0.00 0.00 0.00 65 1012.5
20260506184557 64 296 0.0 0.0 0.00 0.00 0.00 65 1012.3
20260506183043 64 279 0.0 0.0 0.00 0.00 0.00 64 1012.3
20260506181543 64 302 0.0 0.0 0.00 0.00 0.00 64 1012.2
20260506180042 64 277 0.0 0.0 0.00 0.00 0.00 63 1012.0
20260506174542 64 268 0.0 0.0 0.00 0.00 0.00 62 1011.9
20260506173046 65 252 0.0 0.0 0.00 0.00 0.00 62 1011.7
20260506171554 66 252 0.0 0.0 0.00 0.00 0.00 60 1011.6
20260506170044 66 233 0.0 0.0 0.00 0.00 0.00 58 1011.7
20260506164544 67 263 0.0 0.0 0.00 0.00 0.00 56 1011.7
20260506163040 67 244 0.0 0.0 0.00 0.00 0.00 56 1011.8
20260506161542 68 263 0.0 0.0 0.00 0.00 0.00 55 1011.9
20260506160045 68 261 0.0 0.0 0.00 0.00 0.00 56 1012.0
20260506154538 69 258 0.0 0.0 0.00 0.00 0.00 53 1012.0
20260506153039 70 257 0.0 0.0 0.00 0.00 0.00 49 1011.7
20260506151541 71 277 0.0 0.0 0.00 0.00 0.00 49 1011.7
20260506150037 72 252 0.0 0.0 0.00 0.00 0.00 51 1011.7
20260506144548 72 254 0.0 0.0 0.00 0.00 0.00 52 1011.7
20260506143036 73 267 0.0 0.0 0.00 0.00 0.00 50 1011.6
20260506141534 74 242 0.0 0.0 0.00 0.00 0.00 49 1011.5
20260506140035 74 246 0.0 0.0 0.00 0.00 0.00 48 1011.5
20260506134533 74 244 0.0 0.0 0.00 0.00 0.00 45 1011.5
20260506133035 74 279 0.0 0.0 0.00 0.00 0.00 49 1011.5
20260506131541 75 263 0.0 0.0 0.00 0.00 0.00 46 1011.4
20260506130030 75 327 0.0 0.0 0.00 0.00 0.00 51 1011.4
20260506124532 74 190 0.0 0.0 0.00 0.00 0.00 52 1011.6
20260506123027 75 244 0.0 0.0 0.00 0.00 0.00 54 1011.7
20260506121524 73 226 0.0 0.0 0.00 0.00 0.00 52 1011.9
20260506120024 74 242 0.0 0.0 0.00 0.00 0.00 54 1012.1
20260506114533 73 126 0.0 0.0 0.00 0.00 0.00 54 1012.0
20260506113020 73 163 0.0 0.0 0.00 0.00 0.00 57 1012.1
20260506111517 71 213 0.0 0.0 0.00 0.00 0.00 57 1012.2
20260506110020 71 143 0.0 0.0 0.00 0.00 0.00 59 1012.1
20260506104512 71 32 0.0 0.0 0.00 0.00 0.00 60 1012.1
20260506103010 69 94 0.0 0.0 0.00 0.00 0.00 59 1012.5
20260506101511 69 223 0.0 0.0 0.00 0.00 0.00 61 1012.6
20260506100013 68 198 0.0 0.0 0.00 0.00 0.00 63 1012.6
20260506094502 67 150 0.0 0.0 0.00 0.00 0.00 66 1012.6
20260506093100 66 211 0.0 0.0 0.00 0.00 0.00 71 1012.6
20260506091557 64 183 0.0 0.0 0.00 0.00 0.00 73 1012.6
20260506090052 62 180 0.0 0.0 0.00 0.00 0.00 75 1012.6
20260506084548 61 178 0.0 0.0 0.00 0.00 0.00 77 1012.7
20260506083047 61 185 0.0 0.0 0.00 0.00 0.00 78 1012.7
20260506081545 61 124 0.0 0.0 0.00 0.00 0.00 79 1013.1
20260506073039 59 124 0.0 0.0 0.00 0.00 0.00 79 1013.1
20260506071538 59 124 0.0 0.0 0.00 0.00 0.00 79 1013.1
20260506061533 57 124 0.0 0.0 0.00 0.00 0.00 81 1012.9
20260506044528 56 109 0.0 0.0 0.00 0.00 0.00 82 1012.7
20260506043017 56 109 0.0 0.0 0.00 0.00 0.00 82 1012.7
20260506041514 56 109 0.0 0.0 0.00 0.00 0.00 82 1012.6
20260506040013 56 109 0.0 0.0 0.00 0.00 0.00 82 1012.6
20260506034511 56 133 0.0 0.0 0.00 0.00 0.00 82 1012.6
20260506033013 56 133 0.0 0.0 0.00 0.00 0.00 82 1012.6
20260506031522 56 132 0.0 0.0 0.00 0.00 0.00 82 1012.5
20260506030026 56 98 0.0 0.0 0.00 0.00 0.00 82 1012.4
20260506024519 56 98 0.0 0.0 0.00 0.00 0.00 82 1012.6
20260506023008 56 129 0.0 0.0 0.00 0.00 0.00 82 1012.7
20260506021508 56 130 0.0 0.0 0.00 0.00 0.00 82 1012.7